User: anonymous   Login
Location: Nirvana
(45.0297°N, 77.2628°W)
Time: 02:33:07
(UTC-05:00)
Language:

H-2A R/B - Orbit

View from above orbital plane
View from above orbital plane
View from above satellite
View from above satellite

Ground track
Ground track

The orbit data is extracted from the following two-line orbital elements,

1 27601U 02056E   14329.28976641  .00000357  00000-0  14609-3 0  2419
2 27601 098.4720 048.1538 0072798 182.3049 210.0440 14.31469286624048
Epoch (UTC): 25 November 2014 06:57:15
Eccentricity: 0.0072798
inclination: 98.4720°
perigee height: 734 km
apogee height: 839 km
right ascension of ascending node: 48.1538°
argument of perigee: 182.3049°
revolutions per day: 14.31469286
mean anomaly at epoch: 210.0440°
orbit number at epoch: 62404

The dashed part of the orbit path shows where the satellite is in the earth's shadow,  

DLR